Regional Weather Roundup
Issued by NWS

Home | Current Version | Previous Version | Graphics & Text | Print | Product List | Glossary Off
Versions: 1 2 3 4 5 6 7 8 9 10 11 12 13 14 15 16 17 18 19 20 21 22 23 24 25 26 27 28 29 30 31 32 33 34 35 36 37 38 39 40 41 42 43 44 45 46 47 48 49 50

000
ASUS43 KMKX 280211
RWRWI

WISCONSIN REGIONAL WEATHER ROUNDUP
NATIONAL WEATHER SERVICE MILWAUKEE/SULLIVAN WI
900 PM CDT MON MAR 27 2017

NOTE: "FAIR" INDICATES FEW OR NO CLOUDS BELOW 12,000 FEET WITH NO
SIGNIFICANT WEATHER AND/OR OBSTRUCTIONS TO VISIBILITY.

WIZ001-002-006>008-014>016-023>028-280300-
NORTHWEST WISCONSIN

CITY           SKY/WX    TMP DP  RH WIND       PRES   REMARKS
SUPERIOR ARPT  CLEAR     32  30  94 CALM      30.03R
ASHLAND        CLEAR     31  29  92 CALM      30.03R
HAYWARD        CLEAR     41  30  65 NE6       30.00R
SIREN          CLEAR     46  31  55 CALM      30.00R
CUMBERLAND     CLEAR     37  32  81 N5        29.98R WCI  34
RICE LAKE      CLEAR     40  37  88 CALM      30.00R
CHETEK         CLEAR     37  35  94 NE3       29.99R
LADYSMITH      CLEAR     38  33  81 CALM      30.00R
EAU CLAIRE     PTCLDY    42  37  82 CALM      29.98R
MENOMONIE      CLEAR     42  38  86 CALM      29.99R
NEW RICHMOND   CLEAR     40  36  83 CALM      29.99R
OSCEOLA        CLEAR     42  34  73 CALM      30.01R
$$

WIZ003>005-009-010-017-018-280300-
NORTH CENTRAL WISCONSIN

CITY           SKY/WX    TMP DP  RH WIND       PRES   REMARKS
MANITOWISH WTR CLOUDY    39  32  76 NE3       29.99R
ARBOR VITAE    CLOUDY    37  33  86 CALM      29.98R
WOODRUFF       CLOUDY    37  33  86 CALM      29.98R
RHINELANDER    CLEAR     33  29  85 CALM      29.98R
EAGLE RIVER    CLEAR     31  31  99 CALM      29.99R
LAND O LAKES   CLOUDY    33  30  90 CALM      30.00S
PHILLIPS       CLEAR     33  31  90 CALM      29.98R
TOMAHAWK       CLEAR     32  30  94 CALM      29.99R
MEDFORD        CLEAR     35  35  99 CALM      29.98R
MERRILL        CLEAR     31  31 100 CALM      29.99R FOG
$$

WIZ029-030-035-036-043>047-280300-
CENTRAL WISCONSIN

CITY           SKY/WX    TMP DP  RH WIND       PRES   REMARKS
WAUSAU         MOCLDY    40  37  89 CALM      29.97R
MOSINEE        MOCLDY    41  39  93 N3        29.99R
MARSHFIELD     CLOUDY    41  36  82 CALM      29.97R
STEVENS POINT  CLOUDY    38  38 100 CALM      29.99S
WAUPACA        CLOUDY    43  41  94 CALM      30.00R
WAUTOMA        CLOUDY    42  41  96 N6        30.00R
WISC RAPIDS    CLOUDY    41  40  96 CALM      30.00R
CAMP DOUGLAS   CLOUDY    43  39  87 NE5       29.99R
$$

WIZ011>013-019>022-031-037>040-048>050-280300-
NORTHEAST WISCONSIN

CITY           SKY/WX    TMP DP  RH WIND       PRES   REMARKS
ANTIGO         CLOUDY    36  36  99 CALM      29.98R
SHAWANO        CLOUDY    41  38  89 CALM      30.00R
OCONTO         CLOUDY    37  34  89 CALM      30.00S
STURGEON BAY   NOT AVBL
GREEN BAY      CLOUDY    40  38  93 N3        30.00R
MANITOWOC      CLOUDY    38  34  85 CALM      30.00R
APPLETON       CLOUDY    39  37  93 CALM      29.97R
CLINTONVILLE   CLOUDY    41  37  87 CALM      30.00R
OSHKOSH        CLOUDY    41  38  89 NE6       29.99R
$$

WIZ032>034-041-042-053>061-280300-
SOUTHWEST WISCONSIN

CITY           SKY/WX    TMP DP  RH WIND       PRES   REMARKS
LA CROSSE      CLOUDY    46  39  76 N5        29.98R
SPARTA         CLOUDY    43  39  85 NE5       30.00R
VIROQUA        CLOUDY    43  42  99 CALM      29.97R
BOSCOBEL       CLOUDY    48  45  89 CALM      29.98R
PRAIRIE DU CHI CLOUDY    45  44  94 W3        29.98R
PLATTEVILLE    CLOUDY    47  47 100 N3        29.97R
$$

WIZ056-057-062-063-064-067-068-280300-
SOUTH CENTRAL WISCONSIN

CITY           SKY/WX    TMP DP  RH WIND       PRES   REMARKS
REEDSBURG      CLOUDY    44  44  99 N5        29.97R
BARABOO/DELLS  CLOUDY    44  42  91 N3        29.98R
LONE ROCK      CLOUDY    48  45  89 CALM      29.98R FOG
MINERAL POINT  LGT RAIN  46  46 100 CALM      29.97R
MADISON        LGT RAIN  46  44  93 NE5       29.96R
MIDDLETON      CLOUDY    47  47 100 N3        29.97R
WATERTOWN      CLOUDY    45  45 100 NE5       29.96R
MONROE         CLOUDY    45  43  93 N6        29.95R
JANESVILLE     CLOUDY    48  46  93 NE8       29.95R
$$

WIZ051-052-058>065-066-070>072-280300-
SOUTHEAST WISCONSIN

CITY           SKY/WX    TMP DP  RH WIND       PRES   REMARKS
MILWAUKEE      CLOUDY    39  36  89 N5        29.98R
WAUKESHA       CLOUDY    36  36 100 NE8       29.98S FOG     WCI  29
MILWAUKEE/TIMM CLOUDY    37  34  87 NE7       29.99R WCI  32
RACINE         CLOUDY    38  35  89 N9        29.99R WCI  31
KENOSHA        CLOUDY    40  37  89 NE7       29.97R
FOND DU LAC    CLOUDY    42  37  82 N7        29.98R HAZE
SHEBOYGAN      CLOUDY    37  34  89 NE5       29.99R WCI  33
WEST BEND      CLOUDY    37  36  93 E7        29.98R WCI  32
JUNEAU         CLOUDY    43  40  90 N3        29.98R
$$

LSZ147-162-280300-
LAKE SUPERIOR

STATION/POSITION TIME  TEMP    WIND        PRES    WAVE
                       AIR SEA DIR/SP/G            HT/PER
                 (UTC) (F)     (DEG/KT/KT) (MB)    (FT/S)
DEVILS ISLAND    0200   36      30/  3/  3 1017.7R
PORT WING        0140   32     160/  3/  3 1016.6S
SAXON HARBOR     0130   33     180/  1/  4 1016.6R
$$

LMZ867-665-643>646-280300-
LAKE MICHIGAN

STATION/POSITION TIME  TEMP    WIND        PRES    WAVE
                       AIR SEA DIR/SP/G            HT/PER
                 (UTC) (F)     (DEG/KT/KT) (MB)    (FT/S)
CHAMBERS ISLAND  0140   36        CALM     1015.6R
NORTHPORT PIER   0140   36        CALM     1015.9R
SISTER BAY       2336   37        CALM       N/A
KEWAUNEE LAKESHO 0148   37      CALM  /  1 1015.3R
SHEBOYGAN LAKESH 0200   36     350/  4/  5 1016.1R
PORT WASHINGTON  0130   38      30/  7/  9 1016.6R
MILWAUKEE LAKESH 0150   37      20/  9/ 11   N/A
KENOSHA   LAKESH 0200   38      20/  7/  9 1015.6
$$

TC  - TEMPERATURE IN CELSIUS
VSB - VISIBILITY IN STATUTE MILES
WCI - WIND CHILL INDEX
HX  - HEAT INDEX





USA.gov is the U.S. government's official web portal to all federal, state and local government web resources and services.